Location: Bonneuil
(46.1010°N, 2.9693°E)
Time: 12:17:11
(UTC+00:00)

STARLINK-1238 - Pass Details

Date: 09 April 2020
Orbit: 549 x 550 km, 53.0° (Epoch: 06 June)

Event Time Altitude Azimuth Distance (km) Brightness Sun altitude
Rises 20:04:51 0° 298° (WNW) 2,728 9.0 -16.4°
Reaches altitude 10° 20:07:10 10° 291° (WNW) 1,831 7.6 -16.7°
Maximum altitude 20:11:05 41° 221° (SW) 805 4.5 -17.3°
Enters shadow 20:12:47 27° 170° (S) 1,074 4.7 -17.6°
